Meteo pe oră la Czyste

Astăzi, 14 Aprilie, Miercuri

Timp Temperatura Precipitaţii Vânt Presiune Umiditate
00:00 +2°C° 0 mm 3 m/s 756 mmHg 80%
01:00 +2°C° 0 mm 3 m/s 756 mmHg 77%
02:00 +1°C° 0.1 mm 3 m/s 756 mmHg 80%
03:00 0°C° 0.1 mm 4 m/s 756 mmHg 83%
04:00 0°C° 0.1 mm 4 m/s 755 mmHg 86%
05:00 0°C° 0.3 mm 4 m/s 756 mmHg 87%
06:00 0°C° 0.3 mm 4 m/s 756 mmHg 87%
07:00 0°C° 0 mm 4 m/s 756 mmHg 88%
08:00 0°C° 0.5 mm 5 m/s 756 mmHg 86%
09:00 +1°C° 0.5 mm 5 m/s 756 mmHg 84%
10:00 +1°C° 0.5 mm 5 m/s 756 mmHg 82%
11:00 +1°C° 0.4 mm 5 m/s 755 mmHg 83%
12:00 +1°C° 0.4 mm 5 m/s 755 mmHg 85%
13:00 +2°C° 0.4 mm 5 m/s 755 mmHg 86%
14:00 +2°C° 0.4 mm 5 m/s 755 mmHg 88%
15:00 +1°C° 0.4 mm 5 m/s 755 mmHg 91%
16:00 +1°C° 0.4 mm 4 m/s 755 mmHg 93%
17:00 +1°C° 0.3 mm 4 m/s 755 mmHg 94%
18:00 +1°C° 0.3 mm 4 m/s 755 mmHg 95%
19:00 +1°C° 0.3 mm 4 m/s 755 mmHg 97%
20:00 +1°C° 0.5 mm 5 m/s 754 mmHg 97%
21:00 +1°C° 0.5 mm 5 m/s 754 mmHg 97%
22:00 0°C° 0.5 mm 5 m/s 754 mmHg 97%
23:00 0°C° 0.5 mm 5 m/s 754 mmHg 97%

Mâine, 15 Aprilie, Joi

Timp Temperatura Precipitaţii Vânt Presiune Umiditate
00:00 0°C° 0.5 mm 5 m/s 754 mmHg 97%
01:00 0°C° 0.5 mm 5 m/s 753 mmHg 97%
02:00 0°C° 0.9 mm 5 m/s 753 mmHg 97%
03:00 0°C° 0.9 mm 5 m/s 753 mmHg 97%
04:00 0°C° 0.9 mm 5 m/s 753 mmHg 97%
05:00 0°C° 0.9 mm 4 m/s 753 mmHg 97%
06:00 0°C° 0.9 mm 4 m/s 753 mmHg 98%
07:00 -1°C° 0.9 mm 4 m/s 753 mmHg 98%
08:00 0°C° 0.4 mm 4 m/s 753 mmHg 98%
09:00 +1°C° 0.4 mm 3 m/s 753 mmHg 98%
10:00 +2°C° 0.4 mm 3 m/s 753 mmHg 98%
11:00 +2°C° 0.1 mm 3 m/s 753 mmHg 97%
12:00 +2°C° 0.1 mm 3 m/s 753 mmHg 97%
13:00 +3°C° 0.1 mm 3 m/s 753 mmHg 97%
14:00 +3°C° 0.1 mm 3 m/s 753 mmHg 97%
15:00 +4°C° 0.1 mm 2 m/s 753 mmHg 97%
16:00 +4°C° 0.1 mm 2 m/s 753 mmHg 97%
17:00 +4°C° 0 mm 2 m/s 753 mmHg 98%
18:00 +4°C° 0 mm 2 m/s 753 mmHg 98%
19:00 +4°C° 0 mm 2 m/s 753 mmHg 98%
20:00 +4°C° 0.1 mm 2 m/s 753 mmHg 98%
21:00 +4°C° 0.1 mm 2 m/s 753 mmHg 98%
22:00 +4°C° 0.1 mm 3 m/s 752 mmHg 98%
23:00 +3°C° 0.2 mm 3 m/s 752 mmHg 97%

Poimâine, 16 Aprilie, Vineri

Timp Temperatura Precipitaţii Vânt Presiune Umiditate
00:00 +3°C° 0.2 mm 3 m/s 752 mmHg 96%
01:00 +3°C° 0.2 mm 3 m/s 752 mmHg 96%
02:00 +3°C° 0.6 mm 3 m/s 752 mmHg 96%
03:00 +3°C° 0.6 mm 3 m/s 752 mmHg 95%
04:00 +3°C° 0.6 mm 3 m/s 752 mmHg 95%
05:00 +3°C° 0.2 mm 3 m/s 752 mmHg 95%
06:00 +3°C° 0.2 mm 3 m/s 752 mmHg 95%
07:00 +3°C° 0.2 mm 3 m/s 752 mmHg 95%
08:00 +3°C° 0.1 mm 3 m/s 752 mmHg 95%
09:00 +3°C° 0.1 mm 4 m/s 752 mmHg 95%
10:00 +3°C° 0.1 mm 4 m/s 752 mmHg 95%
11:00 +4°C° 0.3 mm 3 m/s 753 mmHg 96%
12:00 +4°C° 0.3 mm 3 m/s 753 mmHg 96%
13:00 +4°C° 0.3 mm 3 m/s 753 mmHg 96%
14:00 +4°C° 0 mm 3 m/s 753 mmHg 95%
15:00 +5°C° 0 mm 3 m/s 753 mmHg 95%
16:00 +5°C° 0 mm 3 m/s 753 mmHg 95%
17:00 +5°C° 0 mm 3 m/s 753 mmHg 95%
18:00 +7°C° 0 mm 3 m/s 753 mmHg 95%
19:00 +7°C° 0 mm 3 m/s 753 mmHg 96%
20:00 +7°C° 0.1 mm 3 m/s 753 mmHg 96%
21:00 +7°C° 0.1 mm 3 m/s 753 mmHg 96%
22:00 +7°C° 0.1 mm 3 m/s 753 mmHg 96%
23:00 +7°C° 0.1 mm 3 m/s 753 mmHg 96%

17 Aprilie, Sâmbătă

Timp Temperatura Precipitaţii Vânt Presiune Umiditate
00:00 +7°C° 0.1 mm 3 m/s 753 mmHg 97%
01:00 +5°C° 0.1 mm 3 m/s 753 mmHg 97%
02:00 +7°C° 0.4 mm 3 m/s 753 mmHg 97%
03:00 +6°C° 0.4 mm 4 m/s 753 mmHg 96%
04:00 +6°C° 0.4 mm 4 m/s 753 mmHg 96%
05:00 +7°C° 0 mm 3 m/s 753 mmHg 94%
06:00 +7°C° 0 mm 3 m/s 754 mmHg 93%
07:00 +7°C° 0 mm 3 m/s 754 mmHg 92%
08:00 +8°C° 0 mm 3 m/s 754 mmHg 89%
09:00 +8°C° 0 mm 3 m/s 754 mmHg 86%
10:00 +9°C° 0 mm 3 m/s 754 mmHg 83%
11:00 +10°C° 0.3 mm 4 m/s 754 mmHg 81%
12:00 +10°C° 0.3 mm 4 m/s 754 mmHg 79%
13:00 +10°C° 0.3 mm 4 m/s 754 mmHg 77%
14:00 +10°C° 0.2 mm 4 m/s 754 mmHg 78%
15:00 +10°C° 0.2 mm 4 m/s 754 mmHg 79%
16:00 +10°C° 0.2 mm 3 m/s 754 mmHg 79%
17:00 +9°C° 0 mm 3 m/s 754 mmHg 83%
18:00 +8°C° 0 mm 3 m/s 754 mmHg 87%
19:00 +8°C° 0 mm 2 m/s 755 mmHg 91%
20:00 +7°C° 0 mm 2 m/s 755 mmHg 92%
21:00 +7°C° 0 mm 2 m/s 755 mmHg 93%
22:00 +6°C° 0 mm 2 m/s 755 mmHg 95%
23:00 +6°C° 0 mm 2 m/s 755 mmHg 95%

18 Aprilie, Duminică

Timp Temperatura Precipitaţii Vânt Presiune Umiditate
00:00 +5°C° 0 mm 2 m/s 755 mmHg 95%
01:00 +4°C° 0 mm 2 m/s 755 mmHg 95%
02:00 +5°C° 0 mm 1 m/s 755 mmHg 94%
03:00 +5°C° 0 mm 1 m/s 755 mmHg 93%
04:00 +5°C° 0 mm 1 m/s 755 mmHg 91%
05:00 +6°C° 0 mm 1 m/s 755 mmHg 89%
06:00 +7°C° 0 mm 1 m/s 755 mmHg 87%
07:00 +8°C° 0 mm 1 m/s 755 mmHg 85%
08:00 +9°C° 0 mm 1 m/s 756 mmHg 81%
09:00 +10°C° 0 mm 1 m/s 756 mmHg 77%
10:00 +10°C° 0 mm 2 m/s 756 mmHg 74%
11:00 +12°C° 0 mm 2 m/s 756 mmHg 68%
12:00 +13°C° 0 mm 2 m/s 755 mmHg 63%
13:00 +14°C° 0 mm 2 m/s 755 mmHg 57%
14:00 +14°C° 0 mm 2 m/s 755 mmHg 58%
15:00 +14°C° 0 mm 2 m/s 755 mmHg 59%
16:00 +14°C° 0 mm 2 m/s 755 mmHg 60%
17:00 +13°C° 0 mm 2 m/s 755 mmHg 66%
18:00 +12°C° 0 mm 2 m/s 755 mmHg 72%
19:00 +10°C° 0 mm 2 m/s 755 mmHg 77%
20:00 +10°C° 0 mm 2 m/s 755 mmHg 80%
21:00 +10°C° 0 mm 2 m/s 755 mmHg 83%
22:00 +9°C° 0 mm 2 m/s 755 mmHg 86%
23:00 +9°C° 0 mm 2 m/s 755 mmHg 88%

19 Aprilie, Luni

Timp Temperatura Precipitaţii Vânt Presiune Umiditate
00:00 +9°C° 0 mm 2 m/s 755 mmHg 90%
01:00 +9°C° 0 mm 3 m/s 755 mmHg 92%
02:00 +8°C° 0.1 mm 3 m/s 755 mmHg 92%
03:00 +8°C° 0.1 mm 3 m/s 755 mmHg 92%
04:00 +8°C° 0.1 mm 3 m/s 755 mmHg 92%
05:00 +7°C° 0 mm 4 m/s 755 mmHg 88%
06:00 +7°C° 0 mm 4 m/s 755 mmHg 85%
07:00 +8°C° 0 mm 4 m/s 755 mmHg 82%
08:00 +9°C° 0 mm 5 m/s 755 mmHg 77%
09:00 +10°C° 0 mm 5 m/s 755 mmHg 72%
10:00 +11°C° 0 mm 6 m/s 755 mmHg 67%
11:00 +11°C° 0 mm 6 m/s 755 mmHg 65%
12:00 +11°C° 0 mm 6 m/s 755 mmHg 64%
13:00 +13°C° 0 mm 6 m/s 755 mmHg 62%
14:00 +13°C° 0.1 mm 6 m/s 755 mmHg 63%
15:00 +13°C° 0.1 mm 5 m/s 754 mmHg 64%
16:00 +13°C° 0.1 mm 5 m/s 754 mmHg 66%
17:00 +12°C° 0 mm 4 m/s 754 mmHg 70%
18:00 +11°C° 0 mm 4 m/s 754 mmHg 74%
19:00 +10°C° 0 mm 3 m/s 754 mmHg 78%
20:00 +10°C° 0 mm 4 m/s 754 mmHg 77%
21:00 +10°C° 0 mm 4 m/s 754 mmHg 77%
22:00 +10°C° 0 mm 4 m/s 754 mmHg 76%
23:00 +8°C° 0 mm 4 m/s 754 mmHg 77%
Arată mai mult

Formular de consimțământ

Meteoprog și furnizorii noștri de servicii pot stoca și accesa date personale, precum cookies, identificatori de dispozitiv sau alte tehnologii similare pe dispozitivul dumneavoastră și procesa astfel de date pentru a personaliza conținutul și reclamele, dar și pentru a oferi caracteristici de social media și pentru a analiza traficul.

  • Stocarea și/sau accesarea informațiilor pe dispozitivul dumneavoastră

    Cookies, identificatori de dispozitiv sau alte informații pot fi stocate sau accesate pe dispozitiv în scopurile indicate mai sus.

  • Reclame și conținut personalizat, evaluarea reclamelor și a conținutului, informații despre audiențe și dezvoltarea produselor

    Reclamele și conținutul pot fi personalizate pe baza unui profil. Pot fi adăugate date suplimentare pentru a personaliza mai bine reclamele și conținutul. Performanța reclamelor și conținutului poate fi măsurată. Pot fi obținute informații despre utilizatorii care au văzut reclamele și conținutul. Aceste date pot fi utilizate pentru a dezvolta sau îmbunătăți experiența utilizatorilor, sistemele și software-ul.

Dând clic pe ‘Sunt de acord’, permiteți utilizarea cookie-urilor menționate, a identificatorilor de dispozitiv, balizelor web sau altor tehnologii similare. Setările pot fi modificate din browser-ul dispozitivului dumneavoastră.

În anumite scopuri, interesele legitime pot prima asupra consimțământului. Puteți citi mai multe informații în acest sens în Politica privind Confidențialitatea Datelor și Cookie.